Погода в Магдалиновке

Украина / Днепропетровская область     48°54′56″N   34°55′05″E
темп.,
°C
ветер,
м/с
пор.,
м/с
влажн.,
%
обл.,
%
осадки,
мм/ч
давл.,
гПа
погр.,
м
30 ноября, вт
вт3023:00+10зюз7137872 1.5 990921
02:00+8з61181100 1.6 993733
05:00+5зюз814745 0.0 996815
08:00+3зюз813677 0.0 999818
11:00+4зюз8105815 0.0 1000975
14:00+5з6853100 0.0 9991069
17:00+3зсз4864100 0.0 999681
20:00+2зсз3868100 0.0 998461
1 декабря, ср
ср123:00+1сз4973100 0.0 999418
02:00−1зсз498312 0.0 1000260
05:00−2зюз488999 0.0 1000211
08:000юз51273100 0.0 1001461
11:00+2юз71062100 0.0 1000926
14:00+1юз51196100 0.6 1000607
17:00+1з71191100 0.2 1002724
20:00+1зсз51086100 0.3 1004667
2 декабря, чт
чт223:00+1з47768 0.1 1007418
02:00−2зюз378636 0.1 1009170
05:00−2ююз378653 0.0 1010158
08:00−1ю5118266 0.0 1010303
11:00+4ююз71569100 0.0 1009626
14:00+6ююз7147216 0.0 1008747
17:00+6ююз6138537 0.0 1008343
20:00+6юз61478100 0.0 1008453
3 декабря, пт
пт323:00+6ююз61393100 0.0 1009434
02:00+8ююз61187100 0.0 1009549
05:00+7ю51191100 0.0 1009449
08:00+6ю51395100 0.0 1010415
11:00+10ю8146835 0.0 10081024
14:00+11ю915555 0.0 10071064
17:00+10ю91678100 0.0 1006759
20:00+10ююз81689100 0.0 1006634
4 декабря, сб
сб423:00+10юз81285100 0.0 1007741
02:00+8зсз5887100 0.1 1009478
05:00+4с4592100 0.0 1010350
08:00+3с4695100 0.0 1012430
11:00+3ссв4594100 0.0 1012378
14:00+4ссв5587100 0.2 1010499
17:00+3св5796100 5.9 1010357
20:00+2ссв5995100 11.3 1009331